(308475) = 2005 TJ36

Discovered at Catalina on 2005-10-01 by CSS.

Orbit

Orbit type: Main Belt

Note: WebGL enabled browser required.

epoch2024-03-31.0
epoch JD2460400.5
perihelion date2020-12-01.68871
perihelion JD2459185.18871
argument of perihelion (°)147.92181
ascending node (°)167.43991
inclination (°)8.26415
eccentricity0.1161163
perihelion distance (AU)2.6611628
Tisserand w.r.t. Jupiter3.2
ΔV w.r.t. Earth (km/sec)10.5
semimajor axis (AU)3.0107613
mean anomaly (°)229.28566
mean daily motion (°/day)0.18866410
aphelion distance (AU)3.360
period (years)5.22
P-vector [x]0.71275599
P-vector [y]-0.67007503
P-vector [z]-0.20731221
Q-vector [x]0.70071526
Q-vector [y]0.69340711
Q-vector [z]0.16788303
absolute magnitude15.96
phase slope0.15
uncertainty0
referenceMPEC 2024-F14
observations used373
oppositions14
arc length (days)6772
first opposition used2005
last opposition used2024
residual rms (arc-secs)0.67
perturbers coarse indicatorM-v
perturbers precise indicator003Ek
first observation date used2005-09-01.0
last observation date used2024-03-17.0
computer nameMPCLINUX
JD of orbit computation2456847.726640
perihelion JD uncertainty (days)2.9336E-04
argument of perihelion uncertainty (°)7.0444E-05
ascending node uncertainty (°)5.1506E-05
inclination uncertainty (°)9.8894E-06
eccentricity uncertainty 8.1508E-08
perihelion distance uncertainty (AU)2.7607E-07
Minimum Orbit Intersection Distances (in AU)
for orbit epoch: 2460400.5, reference: E2024-G77
Mercury2.24218
Venus1.94081
Earth1.65213
Mars1.28874
Jupiter1.96492
Saturn5.78609
Uranus15.1176
Neptune26.7834

Observations

380 total observations over interval: 2005 09 01.38874 – 2024 03 17.456696
These data are available for download (format description).

Date (UT) J2000 RA J2000 Dec Magn Location Ref
2005 09 01.38874 23 55 16.77 -01 23 52.2 20.0 V 691 – Steward Observatory, Kitt Peak-Spacewatch MPS 156025
2005 09 01.40621 23 55 16.13 -01 23 59.7 19.9 V 691 – Steward Observatory, Kitt Peak-Spacewatch MPS 156025
2005 09 01.42364 23 55 15.49 -01 24 07.3 20.0 V 691 – Steward Observatory, Kitt Peak-Spacewatch MPS 156025
2005 09 22.32448 23 41 22.78 -04 05 24.1 19.0 R 644 – Palomar Mountain/NEAT MPS 156025
2005 09 22.34517 23 41 21.88 -04 05 33.8 19.2 R 644 – Palomar Mountain/NEAT MPS 156025
2005 09 22.36678 23 41 20.98 -04 05 43.3 19.4 R 644 – Palomar Mountain/NEAT MPS 156025
2005 09 23.26116 23 40 44.32 -04 12 32.4 19.9 V 703 – Catalina Sky Survey MPS 147639
2005 09 23.26973 23 40 44.04 -04 12 36.1 19.5 V 703 – Catalina Sky Survey MPS 147639
2005 09 23.27830 23 40 43.68 -04 12 40.4 19.2 V 703 – Catalina Sky Survey MPS 147639
2005 09 23.28688 23 40 43.35 -04 12 44.9 19.7 V 703 – Catalina Sky Survey MPS 147639
2005 09 24.28263 23 40 02.80 -04 20 15.1 19.8 R 644 – Palomar Mountain/NEAT MPS 147639
2005 09 24.30425 23 40 01.87 -04 20 24.8 19.4 R 644 – Palomar Mountain/NEAT MPS 147639
2005 09 24.32550 23 40 00.98 -04 20 34.5 19.9 R 644 – Palomar Mountain/NEAT MPS 147639
2005 09 26.92377 23 38 16.89 -04 39 52.4 18.9 V A50 – Andrushivka Astronomical Observatory MPS 167109
2005 09 26.93127 23 38 16.59 -04 39 55.6 18.9 V A50 – Andrushivka Astronomical Observatory MPS 167109
2005 10 01.23563 23 35 31.77 -05 10 27.4 20.5 V 703 – Catalina Sky Survey MPS 144476
2005 10 01.24418 23 35 31.45 -05 10 31.1 19.4 V 703 – Catalina Sky Survey MPS 144476
2005 10 01.25270 23 35 31.16 -05 10 35.0 20.5 V 703 – Catalina Sky Survey MPS 144476
2005 10 01.26123 23 35 30.84 -05 10 38.8 19.5 V 703 – Catalina Sky Survey MPS 144476
2005 10 06.17931 23 32 38.54 -05 42 53.0 19.9 V G96 – Mt. Lemmon Survey MPS 144476
2005 10 06.18481 23 32 38.36 -05 42 55.0 19.9 V G96 – Mt. Lemmon Survey MPS 144476
2005 10 06.19037 23 32 38.14 -05 42 57.2 19.9 V G96 – Mt. Lemmon Survey MPS 144476
2005 10 06.19590 23 32 37.96 -05 42 59.0 20.0 V G96 – Mt. Lemmon Survey MPS 144476
2008 03 10.27877 09 57 37.29 +09 38 19.3 21.6 V G96 – Mt. Lemmon Survey MPS 282565
2008 03 10.28700 09 57 36.97 +09 38 21.9 21.1 V G96 – Mt. Lemmon Survey MPS 282565
2008 03 10.29517 09 57 36.64 +09 38 24.9 21.1 V G96 – Mt. Lemmon Survey MPS 282565
2008 03 10.30337 09 57 36.32 +09 38 27.6 21.4 V G96 – Mt. Lemmon Survey MPS 282565
2008 03 28.16776 09 48 48.27 +11 06 19.7 21.3 V G96 – Mt. Lemmon Survey MPS 282565
2008 03 28.17394 09 48 48.13 +11 06 21.6 21.4 V G96 – Mt. Lemmon Survey MPS 282565
2008 03 28.18046 09 48 47.98 +11 06 23.1 21.7 V G96 – Mt. Lemmon Survey MPS 282565
2008 03 28.18660 09 48 47.88 +11 06 24.7 21.2 V G96 – Mt. Lemmon Survey MPS 282565
2009 03 19.41495 15 20 58.05 -10 06 57.0 20.8 V G96 – Mt. Lemmon Survey MPS 282565
2009 03 19.42185 15 20 58.05 -10 06 55.2 20.8 V G96 – Mt. Lemmon Survey MPS 282565
2009 03 19.42873 15 20 58.02 -10 06 53.8 20.7 V G96 – Mt. Lemmon Survey MPS 282565
2009 03 19.43562 15 20 57.98 -10 06 52.3 20.8 V G96 – Mt. Lemmon Survey MPS 282565
2009 03 26.45308 15 20 18.42 -09 37 09.8 19.4 V G96 – Mt. Lemmon Survey MPS 282565
2009 03 26.46226 15 20 18.34 -09 37 07.0 19.5 V G96 – Mt. Lemmon Survey MPS 282565
2009 03 26.47139 15 20 18.20 -09 37 05.0 20.5 V G96 – Mt. Lemmon Survey MPS 282565
2009 03 26.48054 15 20 18.09 -09 37 02.4 20.4 V G96 – Mt. Lemmon Survey MPS 282565
2009 04 21.43177 15 08 54.38 -07 21 06.0 20.2 V G96 – Mt. Lemmon Survey MPS 284371
2009 04 21.43774 15 08 54.13 -07 21 04.0 20.2 V G96 – Mt. Lemmon Survey MPS 284371
2009 04 21.44380 15 08 53.91 -07 21 02.0 20.3 V G96 – Mt. Lemmon Survey MPS 284371
2009 04 21.44984 15 08 53.66 -07 21 00.0 20.2 V G96 – Mt. Lemmon Survey MPS 284371
2009 04 26.94573 15 05 04.76 -06 50 39.9 19.2 R 152 – Moletai Astronomical Observatory MPS 288653
2009 04 26.98171 15 05 03.13 -06 50 29.7 19.9 R 152 – Moletai Astronomical Observatory MPS 288653
2010 08 07.72170 22 11 18.26 -06 00 28.8 19.8 R D29 – Purple Mountain Observatory, XuYi Station MPS 343725
2010 08 07.73380 22 11 17.75 -06 00 31.8 19.5 R D29 – Purple Mountain Observatory, XuYi Station MPS 343725
2010 08 07.74588 22 11 17.32 -06 00 37.0 19.9 R D29 – Purple Mountain Observatory, XuYi Station MPS 343725
2010 08 07.75792 22 11 16.87 -06 00 41.0 20.1 R D29 – Purple Mountain Observatory, XuYi Station MPS 343725
2010 08 19.420275 22 03 25.376 -07 18 25.65 20.17 i F51 – Pan-STARRS 1, Haleakala MPS 365546
2010 08 19.431989 22 03 24.851 -07 18 31.44 20.31 i F51 – Pan-STARRS 1, Haleakala MPS 365546
2011 10 23.45450 04 53 56.072 +11 51 04.67 20.9 w F51 – Pan-STARRS 1, Haleakala MPS 396310
2011 10 23.46938 04 53 55.760 +11 51 01.44 20.9 w F51 – Pan-STARRS 1, Haleakala MPS 396310
2011 10 23.49920 04 53 55.132 +11 50 54.70 20.5 w F51 – Pan-STARRS 1, Haleakala MPS 396310
2011 11 23.25054 04 34 46.24 +10 02 42.2 19.4 R H15 – ISON-NM Observatory, Mayhill MPS 401093
2011 11 23.26476 04 34 45.38 +10 02 39.2 19.4 R H15 – ISON-NM Observatory, Mayhill MPS 401093
2011 11 23.27931 04 34 44.81 +10 02 36.1 19.3 R H15 – ISON-NM Observatory, Mayhill MPS 401093
2011 11 23.29390 04 34 43.94 +10 02 34.0 19.4 R H15 – ISON-NM Observatory, Mayhill MPS 401093
2011 11 26.21226 04 32 17.52 +09 54 47.0 20.1 V G96 – Mt. Lemmon Survey MPS 402371
2011 11 26.21924 04 32 17.16 +09 54 45.9 20.1 V G96 – Mt. Lemmon Survey MPS 402371
2011 11 26.22621 04 32 16.76 +09 54 44.9 20.0 V G96 – Mt. Lemmon Survey MPS 402371
2011 11 26.23318 04 32 16.40 +09 54 43.9 20.1 V G96 – Mt. Lemmon Survey MPS 402371
2013 02 03.34439 09 10 55.563 +09 53 55.49 20.9 w F51 – Pan-STARRS 1, Haleakala MPS 456231
2013 02 03.35900 09 10 54.857 +09 54 00.10 20.9 w F51 – Pan-STARRS 1, Haleakala MPS 456231
2013 02 03.38833 09 10 53.440 +09 54 09.07 20.8 w F51 – Pan-STARRS 1, Haleakala MPS 456231
2014 03 31.38658 13 53 49.85 -04 20 39.4 19.8 V G96 – Mt. Lemmon Survey MPS 509663
2014 03 31.39389 13 53 49.58 -04 20 36.3 19.6 V G96 – Mt. Lemmon Survey MPS 509663
2014 03 31.40119 13 53 49.29 -04 20 33.9 19.9 V G96 – Mt. Lemmon Survey MPS 509663
2014 05 18.29433 13 22 37.336 -00 10 42.97 20.6 w F51 – Pan-STARRS 1, Haleakala MPS 516327
2014 05 18.30559 13 22 37.033 -00 10 41.41 20.6 w F51 – Pan-STARRS 1, Haleakala MPS 516327
2014 05 18.31685 13 22 36.724 -00 10 39.69 20.7 w F51 – Pan-STARRS 1, Haleakala MPS 516327
2014 06 29.27150 13 22 10.977 -00 42 49.81 21.2 w F51 – Pan-STARRS 1, Haleakala MPS 522740
2014 06 29.28258 13 22 11.234 -00 42 52.17 21.2 w F51 – Pan-STARRS 1, Haleakala MPS 522740
2014 06 29.29369 13 22 11.482 -00 42 54.48 21.3 w F51 – Pan-STARRS 1, Haleakala MPS 522740
2014 06 29.30478 13 22 11.732 -00 42 56.84 21.4 w F51 – Pan-STARRS 1, Haleakala MPS 522740
2015 07 09.44738 20 29 24.689 -09 03 54.40 19.8 i F51 – Pan-STARRS 1, Haleakala MPS 615065
2015 07 09.45904 20 29 24.219 -09 03 56.51 19.8 i F51 – Pan-STARRS 1, Haleakala MPS 615065
2015 07 09.47068 20 29 23.754 -09 03 58.53 19.9 i F51 – Pan-STARRS 1, Haleakala MPS 615065
2015 07 27.37826 20 16 26.583 -10 17 40.90 19.5 i F51 – Pan-STARRS 1, Haleakala MPS 618393
2015 07 27.38986 20 16 26.041 -10 17 44.43 19.5 i F51 – Pan-STARRS 1, Haleakala MPS 618393
2015 07 28.37609 20 15 40.726 -10 22 46.64 19.9 r F51 – Pan-STARRS 1, Haleakala MPS 618393
2015 07 28.38822 20 15 40.122 -10 22 50.61 19.9 r F51 – Pan-STARRS 1, Haleakala MPS 618393
2015 07 28.40029 20 15 39.557 -10 22 54.28 19.9 r F51 – Pan-STARRS 1, Haleakala MPS 618393
2015 07 28.41193 20 15 38.995 -10 22 57.92 19.7 r F51 – Pan-STARRS 1, Haleakala MPS 618393
2015 08 05.45172 20 09 37.679 -11 06 29.64 19.6 i F51 – Pan-STARRS 1, Haleakala MPS 619624
2015 08 05.46329 20 09 37.147 -11 06 33.65 19.8 i F51 – Pan-STARRS 1, Haleakala MPS 619624
2015 08 05.47503 20 09 36.607 -11 06 37.53 19.8 i F51 – Pan-STARRS 1, Haleakala MPS 619624
2015 08 05.48668 20 09 36.095 -11 06 41.53 19.6 i F51 – Pan-STARRS 1, Haleakala MPS 619624
2015 08 09.34426 20 06 53.827 -11 28 39.66 19.8 w F52 – Pan-STARRS 2, Haleakala MPS 620952
2015 08 09.35640 20 06 53.338 -11 28 43.89 19.7 w F52 – Pan-STARRS 2, Haleakala MPS 620952
2015 08 09.36863 20 06 52.793 -11 28 48.09 19.8 w F52 – Pan-STARRS 2, Haleakala MPS 620952
2015 10 09.21947 20 05 53.387 -15 50 42.84 21.5 w F51 – Pan-STARRS 1, Haleakala MPS 630919
